DMSP 5D-2 F13 DEB, 42286

Orbit data source: Space-Track

DMSP 5D-2 F13 DEB, 42286 is space debris in SSO originally from a launch on Fri, 24 Mar 1995 UTC launched from the Air Force Western Test Range (AFWTR). Debris objects in space refer to the collection of defunct objects orbiting the Earth. Examples of debris include non-operational satellites, rocket bodies, and fragments generated from explosions, collisions, or faulty payload assembly.

Loading next visibility...
DMSP 5D-2 F13 DEB details
Identifier
42286, 1995-015HC
Orbit
SSO
Last TLE update1 day ago
Origin
Flag of USUSAF SMC (US)
ManufacturerUnknown
MissionSpacecraft
Bus & MotorUnknown
MassUnknown
Launch date (UTC)
1995-03-24 (30 years ago)
Launch vehicleUnknown
Launch site
Air Force Western Test Range (AFWTR)
Object type
Payload
Rocket body
Debris
Shape & HBRUnknown
Radar Cross SectionSmall (<0.1 m²)

Expand to show TLE details & history

TLE from 1 day ago
0 DMSP 5D-2 F13 DEB
1 42286U 95015HC  24360.12827182  .00009569  00000-0  45779-2 0  9991
2 42286  98.9172 321.0838 0054692 183.1977 176.8856 14.18485995494155
Epoch: 2024-12-25T03:04Z
Definitive object data (Epoch: 2024-12-25T03:04:42.685Z)
Latitude-0.00001°
Longitude-179.22052°
Altitude872.759 km
Speed7.396 km/s
True Right ascension21h 24m 20s
True Declination0° 00' 00"
Sunlit
Object was in daylight at TLE epoch
Visualization TLE readout
Latitude-54.79666°
Longitude-10.67912°
Altitude829.489 km
Speed7.449 km/s
Apparent Right ascension01h 42m 52s
Apparent Declination-79° 54' 41"
Sunlit
Object is in daylight
Visualization observer readout
Local Sidereal Time10:00:31
Azimuth191.802° SSW
Elevation-45.046°
Doppler factor1
Orbital elements
Apogee altitude867.058 km
Perigee altitude788.238 km
Semi-major axis7,205.785 km
Eccentricity0.0054692
Inclination98.9172°
RAAN321.0838°
Arg. of periapsis183.1977°
True anomaly176.91942°
Mean anomaly176.8856°
Eccentric anomaly176.90253°
Mean motion3.54831 °/min
BSTAR0.0045779
Orbital period101.46 mins
Loading maneuver chart data...

DMSP 5D-2 F13 DEB Visibility forecast

Observer location: undefined°, undefined

Span
Click to sort rows by Start time (UTC) header in descending order
Start Az.
Max El. time (UTC)
Max El. Az.
Max El.
End time (UTC)
End Az.
6 mins2024-12-26 11:49:18.712Z338.879° N2024-12-26 11:52:18.712Z301.818° NW18.623°2024-12-26 11:55:18.712Z260.897° W
9 mins2024-12-26 21:31:18.712Z162.364° S2024-12-26 21:35:18.712Z136.45° SSE44.637°2024-12-26 21:40:18.712Z347.443° N
8 mins2024-12-27 09:51:18.712Z39.328° NE2024-12-27 09:55:18.712Z107.745° ESE29.502°2024-12-27 09:59:18.712Z161.486° S
|